Oasis of the Seas — C6XS7 — position and weather

sailwx.info

Track history (hours):
 
Tides and Currents Weather Stations Pressure Air Temp Water Temp Dewpoint Dewpoint Depression Visibility Wind Speed Wind Dir Waves Ship Positions

Oasis of the Seas

Last reported at 2020-Jan-20 01:21 UTC. Time now 2020-Jan-20 08:58 UTC.
Position N 25°40' W 079°57'.

Length 360 m; draft 9.3 m.

Type: Passenger vessel. MMSI: 311020600.

Date/timePositionNaut miles runAvg speedWind from/ knotsBaromVisibWave heightAir tempDewpointWater temp
2020-Jan-20 01:21N 25°40' W 079°57'515.2
2020-Jan-20 01:00N 25°43' W 080°02'8 5.0
2020-Jan-19 23:29N 25°46' W 080°09'0 0.0
2020-Jan-19 20:58N 25°46' W 080°09'0 0.0
2020-Jan-19 18:58N 25°46' W 080°09'0 0.0
2020-Jan-19 18:28N 25°46' W 080°09'0 0.0
2020-Jan-19 16:28N 25°46' W 080°09'0 0.0
2020-Jan-19 12:58N 25°46' W 080°09'0 0.0
2020-Jan-19 10:52N 25°46' W 080°09'0 0.0
2020-Jan-19 10:22N 25°46' W 080°09'0 0.0
2020-Jan-19 09:52N 25°46' W 080°09'0 0.0
2020-Jan-19 08:30N 25°46' W 080°09'13 6.5
2020-Jan-19 06:30N 25°42' W 079°56'49016.4
2020-Jan-18 00:34N 20°39' W 086°54'1018.0
2020-Jan-18 00:00N 20°30' W 086°59'1 0.4
2020-Jan-17 19:58N 20°29' W 086°59'0 0.0
2020-Jan-17 18:28N 20°29' W 086°59'0 0.0
2020-Jan-17 17:28N 20°29' W 086°59'0 0.0
2020-Jan-17 16:28N 20°29' W 086°59'0 0.0
2020-Jan-17 14:58N 20°29' W 086°59'9 2.6
2020-Jan-17 11:30N 20°37' W 086°55'32714.6
2020-Jan-16 13:00N 19°09' W 081°19'815.9
2020-Jan-16 12:30N 19°08' W 081°11'815.1
2020-Jan-16 12:00N 19°07' W 081°03'  
2020-Jan-13 00:17N 25°32' W 079°39'31 8.2
2020-Jan-12 20:29N 25°46' W 080°09'0 0.0
2020-Jan-12 18:20N 25°46' W 080°09'0 0.0
2020-Jan-12 17:29N 25°46' W 080°09'0 0.0
2020-Jan-12 16:26N 25°46' W 080°09'0 0.0
2020-Jan-12 15:56N 25°46' W 080°09'0 0.0
2020-Jan-12 15:08N 25°46' W 080°09'0 0.0
2020-Jan-12 12:26N 25°46' W 080°09'0 0.0
2020-Jan-12 11:29N 25°46' W 080°09'0 0.0
2020-Jan-12 10:26N 25°46' W 080°09'0 0.0
2020-Jan-12 08:59N 25°46' W 080°09'0 0.1
2020-Jan-12 08:30N 25°46' W 080°09'6 4.0
2020-Jan-12 07:00N 25°47' W 080°03'88820.8
2020-Jan-10 12:13N 18°31' W 066°07'2 0.9
2020-Jan-10 10:30N 18°32' W 066°08'  
Track history (hours):
 
Tides and Currents Weather Stations Pressure Air Temp Water Temp Dewpoint Dewpoint Depression Visibility Wind Speed Wind Dir Waves Ship Positions

Oasis of the Seas

Last reported at 2020-Jan-20 01:21 UTC. Time now 2020-Jan-20 08:58 UTC.
Position N 25°40' W 079°57'.

Length 360 m; draft 9.3 m.

Type: Passenger vessel. MMSI: 311020600.

Date/timePositionNaut miles runAvg speedWind from/ knotsBaromVisibWave heightAir tempDewpointWater temp
2020-Jan-20 01:21N 25°40' W 079°57'515.2
2020-Jan-20 01:00N 25°43' W 080°02'8 5.0
2020-Jan-19 23:29N 25°46' W 080°09'0 0.0
2020-Jan-19 20:58N 25°46' W 080°09'0 0.0
2020-Jan-19 18:58N 25°46' W 080°09'0 0.0
2020-Jan-19 18:28N 25°46' W 080°09'0 0.0
2020-Jan-19 16:28N 25°46' W 080°09'0 0.0
2020-Jan-19 12:58N 25°46' W 080°09'0 0.0
2020-Jan-19 10:52N 25°46' W 080°09'0 0.0
2020-Jan-19 10:22N 25°46' W 080°09'0 0.0
2020-Jan-19 09:52N 25°46' W 080°09'0 0.0
2020-Jan-19 08:30N 25°46' W 080°09'13 6.5
2020-Jan-19 06:30N 25°42' W 079°56'49016.4
2020-Jan-18 00:34N 20°39' W 086°54'1018.0
2020-Jan-18 00:00N 20°30' W 086°59'1 0.4
2020-Jan-17 19:58N 20°29' W 086°59'0 0.0
2020-Jan-17 18:28N 20°29' W 086°59'0 0.0
2020-Jan-17 17:28N 20°29' W 086°59'0 0.0
2020-Jan-17 16:28N 20°29' W 086°59'0 0.0
2020-Jan-17 14:58N 20°29' W 086°59'9 2.6
2020-Jan-17 11:30N 20°37' W 086°55'32714.6
2020-Jan-16 13:00N 19°09' W 081°19'815.9
2020-Jan-16 12:30N 19°08' W 081°11'815.1
2020-Jan-16 12:00N 19°07' W 081°03'  
2020-Jan-13 00:17N 25°32' W 079°39'31 8.2
2020-Jan-12 20:29N 25°46' W 080°09'0 0.0
2020-Jan-12 18:20N 25°46' W 080°09'0 0.0
2020-Jan-12 17:29N 25°46' W 080°09'0 0.0
2020-Jan-12 16:26N 25°46' W 080°09'0 0.0
2020-Jan-12 15:56N 25°46' W 080°09'0 0.0
2020-Jan-12 15:08N 25°46' W 080°09'0 0.0
2020-Jan-12 12:26N 25°46' W 080°09'0 0.0
2020-Jan-12 11:29N 25°46' W 080°09'0 0.0
2020-Jan-12 10:26N 25°46' W 080°09'0 0.0
2020-Jan-12 08:59N 25°46' W 080°09'0 0.1
2020-Jan-12 08:30N 25°46' W 080°09'6 4.0
2020-Jan-12 07:00N 25°47' W 080°03'88820.8
2020-Jan-10 12:13N 18°31' W 066°07'2 0.9
2020-Jan-10 10:30N 18°32' W 066°08'  

Dump ship's entire track history